owner,sensor,date,latitude,longitude,vertical_datum,sea_water_practical_salinity,qcFlag 
TABS,ioos:station:wmo:42043:1,2013-06-01T00:00:00Z,28.9818,-94.9186,2.0,17.53,11111222 
TABS,ioos:station:wmo:42043:1,2013-06-01T00:30:00Z,28.9818,-94.9186,2.0,17.52,11111222 
TABS,ioos:station:wmo:42043:1,2013-06-01T01:00:00Z,28.9818,-94.9186,2.0,18.09,11111222 
TABS,ioos:station:wmo:42043:1,2013-06-01T01:30:00Z,28.9818,-94.9186,2.0,17.96,11111222 
TABS,ioos:station:wmo:42043:1,2013-06-01T02:00:00Z,28.9818,-94.9186,2.0,17.15,11111222 
TABS,ioos:station:wmo:42043:1,2013-06-01T02:30:00Z,28.9818,-94.9186,2.0,17.04,11111222 
TABS,ioos:station:wmo:42043:1,2013-06-01T03:00:00Z,28.9818,-94.9186,2.0,17.06,11111222 
TABS,ioos:station:wmo:42043:1,2013-06-01T03:30:00Z,28.9818,-94.9186,2.0,17.15,11111222 
TABS,ioos:station:wmo:42043:1,2013-06-01T04:00:00Z,28.9818,-94.9186,2.0,17.18,11111222 
TABS,ioos:station:wmo:42043:1,2013-06-01T04:30:00Z,28.9818,-94.9186,2.0,17.09,11111222 
TABS,ioos:station:wmo:42043:1,2013-06-01T05:00:00Z,28.9818,-94.9186,2.0,17.1,11111222 
TABS,ioos:station:wmo:42043:1,2013-06-01T05:30:00Z,28.9818,-94.9186,2.0,17.22,11111222 
TABS,ioos:station:wmo:42043:1,2013-06-01T06:00:00Z,28.9818,-94.9186,2.0,17.1,11111222 
TABS,ioos:station:wmo:42043:1,2013-06-01T06:30:00Z,28.9818,-94.9186,2.0,17.07,11111222 
TABS,ioos:station:wmo:42043:1,2013-06-01T07:00:00Z,28.9818,-94.9186,2.0,17.13,11111222 
TABS,ioos:station:wmo:42043:1,2013-06-01T07:30:00Z,28.9818,-94.9186,2.0,17.14,11111222 
TABS,ioos:station:wmo:42043:1,2013-06-01T08:00:00Z,28.9818,-94.9186,2.0,17.25,11111222 
TABS,ioos:station:wmo:42043:1,2013-06-01T08:30:00Z,28.9818,-94.9186,2.0,17.41,11111222 
TABS,ioos:station:wmo:42043:1,2013-06-01T09:00:00Z,28.9818,-94.9186,2.0,17.49,11111222 
TABS,ioos:station:wmo:42043:1,2013-06-01T09:30:00Z,28.9818,-94.9186,2.0,17.52,11111222 
TABS,ioos:station:wmo:42043:1,2013-06-01T10:00:00Z,28.9818,-94.9186,2.0,17.55,11111222 
TABS,ioos:station:wmo:42043:1,2013-06-01T10:30:00Z,28.9818,-94.9186,2.0,17.66,11111222 
TABS,ioos:station:wmo:42043:1,2013-06-01T11:00:00Z,28.9818,-94.9186,2.0,17.73,11111222 
TABS,ioos:station:wmo:42043:1,2013-06-01T11:30:00Z,28.9818,-94.9186,2.0,17.79,11111222 
TABS,ioos:station:wmo:42043:1,2013-06-01T12:00:00Z,28.9818,-94.9186,2.0,17.71,11111222 
TABS,ioos:station:wmo:42043:1,2013-06-01T12:30:00Z,28.9818,-94.9186,2.0,17.74,11111222 
TABS,ioos:station:wmo:42043:1,2013-06-01T13:00:00Z,28.9818,-94.9186,2.0,17.71,11111222 
TABS,ioos:station:wmo:42043:1,2013-06-01T13:30:00Z,28.9818,-94.9186,2.0,17.67,11111222 
TABS,ioos:station:wmo:42043:1,2013-06-01T14:00:00Z,28.9818,-94.9186,2.0,17.55,11111222 
TABS,ioos:station:wmo:42043:1,2013-06-01T14:30:00Z,28.9818,-94.9186,2.0,17.32,11111222 
TABS,ioos:station:wmo:42043:1,2013-06-01T15:00:00Z,28.9818,-94.9186,2.0,17.35,11111222 
TABS,ioos:station:wmo:42043:1,2013-06-01T15:30:00Z,28.9818,-94.9186,2.0,17.3,11111222 
TABS,ioos:station:wmo:42043:1,2013-06-01T16:00:00Z,28.9818,-94.9186,2.0,17.37,11111222 
TABS,ioos:station:wmo:42043:1,2013-06-01T16:30:00Z,28.9818,-94.9186,2.0,17.4,11111222 
TABS,ioos:station:wmo:42043:1,2013-06-01T17:00:00Z,28.9818,-94.9186,2.0,17.35,11111222 
TABS,ioos:station:wmo:42043:1,2013-06-01T17:30:00Z,28.9818,-94.9186,2.0,17.03,11111222 
TABS,ioos:station:wmo:42043:1,2013-06-01T18:00:00Z,28.9818,-94.9186,2.0,16.93,11111222 
TABS,ioos:station:wmo:42043:1,2013-06-01T18:30:00Z,28.9818,-94.9186,2.0,16.98,11111222 
TABS,ioos:station:wmo:42043:1,2013-06-01T19:00:00Z,28.9818,-94.9186,2.0,17.03,11111222 
TABS,ioos:station:wmo:42043:1,2013-06-01T19:30:00Z,28.9818,-94.9186,2.0,17.08,11111222 
TABS,ioos:station:wmo:42043:1,2013-06-01T20:00:00Z,28.9818,-94.9186,2.0,17.16,11111222 
TABS,ioos:station:wmo:42043:1,2013-06-01T20:30:00Z,28.9818,-94.9186,2.0,17.24,11111222 
TABS,ioos:station:wmo:42043:1,2013-06-01T21:00:00Z,28.9818,-94.9186,2.0,17.11,11111222 
TABS,ioos:station:wmo:42043:1,2013-06-01T21:30:00Z,28.9818,-94.9186,2.0,17.01,11111222 
TABS,ioos:station:wmo:42043:1,2013-06-01T22:00:00Z,28.9818,-94.9186,2.0,16.95,11111222 
TABS,ioos:station:wmo:42043:1,2013-06-01T22:30:00Z,28.9818,-94.9186,2.0,16.93,11111222 
TABS,ioos:station:wmo:42043:1,2013-06-01T23:00:00Z,28.9818,-94.9186,2.0,16.94,11111222 
TABS,ioos:station:wmo:42043:1,2013-06-01T23:30:00Z,28.9818,-94.9186,2.0,16.78,11111222 
TABS,ioos:station:wmo:42043:1,2013-06-02T00:00:00Z,28.9818,-94.9186,2.0,0.25,11111222 
TABS,ioos:station:wmo:42043:1,2013-06-02T00:30:00Z,28.9818,-94.9186,2.0,0.23,11111222 
TABS,ioos:station:wmo:42043:1,2013-06-02T01:00:00Z,28.9818,-94.9186,2.0,0.21,11111222 
TABS,ioos:station:wmo:42043:1,2013-06-02T01:30:00Z,28.9818,-94.9186,2.0,0.22,11111222 
TABS,ioos:station:wmo:42043:1,2013-06-02T02:00:00Z,28.9818,-94.9186,2.0,0.24,11111222 
TABS,ioos:station:wmo:42043:1,2013-06-02T02:30:00Z,28.9818,-94.9186,2.0,0.22,11111222 
TABS,ioos:station:wmo:42043:1,2013-06-02T03:00:00Z,28.9818,-94.9186,2.0,0.2,11111222 
TABS,ioos:station:wmo:42043:1,2013-06-02T03:30:00Z,28.9818,-94.9186,2.0,0.26,11111222 
TABS,ioos:station:wmo:42043:1,2013-06-02T04:00:00Z,28.9818,-94.9186,2.0,0.22,11111222 
TABS,ioos:station:wmo:42043:1,2013-06-02T04:30:00Z,28.9818,-94.9186,2.0,0.22,11111222 
TABS,ioos:station:wmo:42043:1,2013-06-02T05:00:00Z,28.9818,-94.9186,2.0,0.24,11111222 
TABS,ioos:station:wmo:42043:1,2013-06-02T05:30:00Z,28.9818,-94.9186,2.0,0.24,11111222 
TABS,ioos:station:wmo:42043:1,2013-06-02T06:00:00Z,28.9818,-94.9186,2.0,0.24,11111222 
TABS,ioos:station:wmo:42043:1,2013-06-02T06:30:00Z,28.9818,-94.9186,2.0,0.24,11111222 
TABS,ioos:station:wmo:42043:1,2013-06-02T07:00:00Z,28.9818,-94.9186,2.0,0.23,11111222 
TABS,ioos:station:wmo:42043:1,2013-06-02T07:30:00Z,28.9818,-94.9186,2.0,0.21,11111222 
TABS,ioos:station:wmo:42043:1,2013-06-02T08:00:00Z,28.9818,-94.9186,2.0,0.2,11111222 
TABS,ioos:station:wmo:42043:1,2013-06-02T08:30:00Z,28.9818,-94.9186,2.0,0.21,11111222 
TABS,ioos:station:wmo:42043:1,2013-06-02T09:00:00Z,28.9818,-94.9186,2.0,0.23,11111222 
TABS,ioos:station:wmo:42043:1,2013-06-02T09:30:00Z,28.9818,-94.9186,2.0,0.2,11111222 
TABS,ioos:station:wmo:42043:1,2013-06-02T10:00:00Z,28.9818,-94.9186,2.0,0.2,11111222 
TABS,ioos:station:wmo:42043:1,2013-06-02T10:30:00Z,28.9818,-94.9186,2.0,0.21,11111222 
TABS,ioos:station:wmo:42043:1,2013-06-02T11:00:00Z,28.9818,-94.9186,2.0,0.2,11111222 
TABS,ioos:station:wmo:42043:1,2013-06-02T11:30:00Z,28.9818,-94.9186,2.0,0.21,11111222 
TABS,ioos:station:wmo:42043:1,2013-06-02T12:00:00Z,28.9818,-94.9186,2.0,0.19,11111222 
TABS,ioos:station:wmo:42043:1,2013-06-02T12:30:00Z,28.9818,-94.9186,2.0,0.21,11111222 
TABS,ioos:station:wmo:42043:1,2013-06-02T13:00:00Z,28.9818,-94.9186,2.0,0.22,11111222 
TABS,ioos:station:wmo:42043:1,2013-06-02T13:30:00Z,28.9818,-94.9186,2.0,0.22,11111222 
TABS,ioos:station:wmo:42043:1,2013-06-02T14:00:00Z,28.9818,-94.9186,2.0,0.21,11111222 
TABS,ioos:station:wmo:42043:1,2013-06-02T14:30:00Z,28.9818,-94.9186,2.0,0.13,11111222 
TABS,ioos:station:wmo:42043:1,2013-06-02T15:00:00Z,28.9818,-94.9186,2.0,0.06,11111222 
TABS,ioos:station:wmo:42043:1,2013-06-02T15:30:00Z,28.9818,-94.9186,2.0,0.95,11111222 
TABS,ioos:station:wmo:42043:1,2013-06-02T16:00:00Z,28.9818,-94.9186,2.0,0.37,11111222 
TABS,ioos:station:wmo:42043:1,2013-06-02T16:30:00Z,28.9818,-94.9186,2.0,0.32,11111222 
TABS,ioos:station:wmo:42043:1,2013-06-02T17:00:00Z,28.9818,-94.9186,2.0,0.21,11111222 
TABS,ioos:station:wmo:42043:1,2013-06-02T17:30:00Z,28.9818,-94.9186,2.0,25.01,11111222 
TABS,ioos:station:wmo:42043:1,2013-06-02T18:00:00Z,28.9818,-94.9186,2.0,25.51,11111222 
TABS,ioos:station:wmo:42043:1,2013-06-02T18:30:00Z,28.9818,-94.9186,2.0,25.69,11111222 
TABS,ioos:station:wmo:42043:1,2013-06-02T19:00:00Z,28.9818,-94.9186,2.0,26.69,11111222 
TABS,ioos:station:wmo:42043:1,2013-06-02T19:30:00Z,28.9818,-94.9186,2.0,24.0,11111222 
TABS,ioos:station:wmo:42043:1,2013-06-02T20:00:00Z,28.9818,-94.9186,2.0,25.61,11111222 
TABS,ioos:station:wmo:42043:1,2013-06-02T20:30:00Z,28.9818,-94.9186,2.0,26.05,11111222 
TABS,ioos:station:wmo:42043:1,2013-06-02T21:00:00Z,28.9818,-94.9186,2.0,25.48,11111222 
TABS,ioos:station:wmo:42043:1,2013-06-02T21:30:00Z,28.9818,-94.9186,2.0,24.2,11111222 
TABS,ioos:station:wmo:42043:1,2013-06-02T22:00:00Z,28.9818,-94.9186,2.0,24.38,11111222 
TABS,ioos:station:wmo:42043:1,2013-06-02T22:30:00Z,28.9818,-94.9186,2.0,25.66,11111222 
TABS,ioos:station:wmo:42043:1,2013-06-02T23:00:00Z,28.9818,-94.9186,2.0,25.25,11111222 
TABS,ioos:station:wmo:42043:1,2013-06-02T23:30:00Z,28.9818,-94.9186,2.0,26.16,11111222 
TABS,ioos:station:wmo:42043:1,2013-06-03T00:00:00Z,28.9818,-94.9186,2.0,25.11,11111222 
TABS,ioos:station:wmo:42043:1,2013-06-03T00:30:00Z,28.9818,-94.9186,2.0,24.7,11111222 
TABS,ioos:station:wmo:42043:1,2013-06-03T01:00:00Z,28.9818,-94.9186,2.0,24.67,11111222 
TABS,ioos:station:wmo:42043:1,2013-06-03T01:30:00Z,28.9818,-94.9186,2.0,25.19,11111222 
TABS,ioos:station:wmo:42043:1,2013-06-03T02:00:00Z,28.9818,-94.9186,2.0,25.09,11111222 
TABS,ioos:station:wmo:42043:1,2013-06-03T02:30:00Z,28.9818,-94.9186,2.0,25.65,11111222 
TABS,ioos:station:wmo:42043:1,2013-06-03T03:00:00Z,28.9818,-94.9186,2.0,26.83,11111222 
TABS,ioos:station:wmo:42043:1,2013-06-03T03:30:00Z,28.9818,-94.9186,2.0,27.17,11111222 
TABS,ioos:station:wmo:42043:1,2013-06-03T04:00:00Z,28.9818,-94.9186,2.0,27.71,11111222 
TABS,ioos:station:wmo:42043:1,2013-06-03T04:30:00Z,28.9818,-94.9186,2.0,28.31,11111222 
TABS,ioos:station:wmo:42043:1,2013-06-03T05:00:00Z,28.9818,-94.9186,2.0,28.64,11111222 
TABS,ioos:station:wmo:42043:1,2013-06-03T05:30:00Z,28.9818,-94.9186,2.0,28.89,11111222 
TABS,ioos:station:wmo:42043:1,2013-06-03T06:00:00Z,28.9818,-94.9186,2.0,29.38,11111222 
TABS,ioos:station:wmo:42043:1,2013-06-03T06:30:00Z,28.9818,-94.9186,2.0,29.58,11111222 
TABS,ioos:station:wmo:42043:1,2013-06-03T07:00:00Z,28.9818,-94.9186,2.0,29.76,11111222 
TABS,ioos:station:wmo:42043:1,2013-06-03T07:30:00Z,28.9818,-94.9186,2.0,29.94,11111222 
TABS,ioos:station:wmo:42043:1,2013-06-03T08:00:00Z,28.9818,-94.9186,2.0,30.08,11111222 
TABS,ioos:station:wmo:42043:1,2013-06-03T08:30:00Z,28.9818,-94.9186,2.0,30.21,11111222 
TABS,ioos:station:wmo:42043:1,2013-06-03T09:00:00Z,28.9818,-94.9186,2.0,30.21,11111222 
TABS,ioos:station:wmo:42043:1,2013-06-03T09:30:00Z,28.9818,-94.9186,2.0,30.22,11111222 
TABS,ioos:station:wmo:42043:1,2013-06-03T10:00:00Z,28.9818,-94.9186,2.0,30.23,11111222 
TABS,ioos:station:wmo:42043:1,2013-06-03T10:30:00Z,28.9818,-94.9186,2.0,30.19,11111222 
TABS,ioos:station:wmo:42043:1,2013-06-03T11:00:00Z,28.9818,-94.9186,2.0,30.12,11111222 
TABS,ioos:station:wmo:42043:1,2013-06-03T11:30:00Z,28.9818,-94.9186,2.0,29.98,11111222 
TABS,ioos:station:wmo:42043:1,2013-06-03T12:00:00Z,28.9818,-94.9186,2.0,29.85,11111222 
TABS,ioos:station:wmo:42043:1,2013-06-03T12:30:00Z,28.9818,-94.9186,2.0,29.82,11111222 
TABS,ioos:station:wmo:42043:1,2013-06-03T13:00:00Z,28.9818,-94.9186,2.0,29.36,11111222 
TABS,ioos:station:wmo:42043:1,2013-06-03T13:30:00Z,28.9818,-94.9186,2.0,28.29,11111222 
TABS,ioos:station:wmo:42043:1,2013-06-03T14:00:00Z,28.9818,-94.9186,2.0,27.41,11111222 
TABS,ioos:station:wmo:42043:1,2013-06-03T14:30:00Z,28.9818,-94.9186,2.0,26.23,11111222 
TABS,ioos:station:wmo:42043:1,2013-06-03T15:00:00Z,28.9818,-94.9186,2.0,25.4,11111222 
TABS,ioos:station:wmo:42043:1,2013-06-03T15:30:00Z,28.9818,-94.9186,2.0,25.14,11111222 
TABS,ioos:station:wmo:42043:1,2013-06-03T16:00:00Z,28.9818,-94.9186,2.0,25.08,11111222 
TABS,ioos:station:wmo:42043:1,2013-06-03T16:30:00Z,28.9818,-94.9186,2.0,25.25,11111222 
TABS,ioos:station:wmo:42043:1,2013-06-03T17:00:00Z,28.9818,-94.9186,2.0,24.77,11111222 
TABS,ioos:station:wmo:42043:1,2013-06-03T17:30:00Z,28.9818,-94.9186,2.0,25.08,11111222 
TABS,ioos:station:wmo:42043:1,2013-06-03T18:00:00Z,28.9818,-94.9186,2.0,25.31,11111222 
TABS,ioos:station:wmo:42043:1,2013-06-03T18:30:00Z,28.9818,-94.9186,2.0,25.49,11111222 
TABS,ioos:station:wmo:42043:1,2013-06-03T19:00:00Z,28.9818,-94.9186,2.0,25.66,11111222 
TABS,ioos:station:wmo:42043:1,2013-06-03T19:30:00Z,28.9818,-94.9186,2.0,25.65,11111222 
TABS,ioos:station:wmo:42043:1,2013-06-03T20:00:00Z,28.9818,-94.9186,2.0,26.16,11111222 
TABS,ioos:station:wmo:42043:1,2013-06-03T20:30:00Z,28.9818,-94.9186,2.0,26.14,11111222 
TABS,ioos:station:wmo:42043:1,2013-06-03T21:00:00Z,28.9818,-94.9186,2.0,26.47,11111222 
TABS,ioos:station:wmo:42043:1,2013-06-03T21:30:00Z,28.9818,-94.9186,2.0,26.6,11111222 
TABS,ioos:station:wmo:42043:1,2013-06-03T22:00:00Z,28.9818,-94.9186,2.0,26.72,11111222 
TABS,ioos:station:wmo:42043:1,2013-06-03T22:30:00Z,28.9818,-94.9186,2.0,26.65,11111222 
TABS,ioos:station:wmo:42043:1,2013-06-03T23:00:00Z,28.9818,-94.9186,2.0,26.83,11111222 
TABS,ioos:station:wmo:42043:1,2013-06-03T23:30:00Z,28.9818,-94.9186,2.0,26.91,11111222 
TABS,ioos:station:wmo:42043:1,2013-06-04T00:00:00Z,28.9818,-94.9186,2.0,27.15,11111222 
TABS,ioos:station:wmo:42043:1,2013-06-04T00:30:00Z,28.9818,-94.9186,2.0,27.25,11111222 
TABS,ioos:station:wmo:42043:1,2013-06-04T01:00:00Z,28.9818,-94.9186,2.0,27.49,11111222 
TABS,ioos:station:wmo:42043:1,2013-06-04T01:30:00Z,28.9818,-94.9186,2.0,27.75,11111222 
TABS,ioos:station:wmo:42043:1,2013-06-04T02:00:00Z,28.9818,-94.9186,2.0,27.8,11111222 
TABS,ioos:station:wmo:42043:1,2013-06-04T02:30:00Z,28.9818,-94.9186,2.0,27.82,11111222 
TABS,ioos:station:wmo:42043:1,2013-06-04T03:00:00Z,28.9818,-94.9186,2.0,27.9,11111222 
TABS,ioos:station:wmo:42043:1,2013-06-04T03:30:00Z,28.9818,-94.9186,2.0,28.02,11111222 
TABS,ioos:station:wmo:42043:1,2013-06-04T04:00:00Z,28.9818,-94.9186,2.0,28.15,11111222 
TABS,ioos:station:wmo:42043:1,2013-06-04T04:30:00Z,28.9818,-94.9186,2.0,28.3,11111222 
TABS,ioos:station:wmo:42043:1,2013-06-04T05:00:00Z,28.9818,-94.9186,2.0,28.63,11111222 
TABS,ioos:station:wmo:42043:1,2013-06-04T05:30:00Z,28.9818,-94.9186,2.0,28.97,11111222 
TABS,ioos:station:wmo:42043:1,2013-06-04T06:00:00Z,28.9818,-94.9186,2.0,29.41,11111222 
TABS,ioos:station:wmo:42043:1,2013-06-04T06:30:00Z,28.9818,-94.9186,2.0,29.69,11111222 
TABS,ioos:station:wmo:42043:1,2013-06-04T07:00:00Z,28.9818,-94.9186,2.0,29.78,11111222 
TABS,ioos:station:wmo:42043:1,2013-06-04T07:30:00Z,28.9818,-94.9186,2.0,30.0,11111222 
TABS,ioos:station:wmo:42043:1,2013-06-04T08:00:00Z,28.9818,-94.9186,2.0,30.35,11111222 
TABS,ioos:station:wmo:42043:1,2013-06-04T08:30:00Z,28.9818,-94.9186,2.0,30.61,11111222 
TABS,ioos:station:wmo:42043:1,2013-06-04T09:00:00Z,28.9818,-94.9186,2.0,30.28,11111222 
TABS,ioos:station:wmo:42043:1,2013-06-04T09:30:00Z,28.9818,-94.9186,2.0,30.15,11111222 
TABS,ioos:station:wmo:42043:1,2013-06-04T10:00:00Z,28.9818,-94.9186,2.0,30.03,11111222 
TABS,ioos:station:wmo:42043:1,2013-06-04T10:30:00Z,28.9818,-94.9186,2.0,29.58,11111222 
TABS,ioos:station:wmo:42043:1,2013-06-04T11:00:00Z,28.9818,-94.9186,2.0,29.24,11111222 
TABS,ioos:station:wmo:42043:1,2013-06-04T11:30:00Z,28.9818,-94.9186,2.0,29.12,11111222 
TABS,ioos:station:wmo:42043:1,2013-06-04T12:00:00Z,28.9818,-94.9186,2.0,28.8,11111222 
TABS,ioos:station:wmo:42043:1,2013-06-04T12:30:00Z,28.9818,-94.9186,2.0,28.53,11111222 
TABS,ioos:station:wmo:42043:1,2013-06-04T13:00:00Z,28.9818,-94.9186,2.0,27.96,11111222 
TABS,ioos:station:wmo:42043:1,2013-06-04T13:30:00Z,28.9818,-94.9186,2.0,27.66,11111222 
TABS,ioos:station:wmo:42043:1,2013-06-04T14:00:00Z,28.9818,-94.9186,2.0,27.44,11111222 
TABS,ioos:station:wmo:42043:1,2013-06-04T14:30:00Z,28.9818,-94.9186,2.0,27.26,11111222 
TABS,ioos:station:wmo:42043:1,2013-06-04T15:00:00Z,28.9818,-94.9186,2.0,27.54,11111222 
TABS,ioos:station:wmo:42043:1,2013-06-04T15:30:00Z,28.9818,-94.9186,2.0,27.31,11111222 
TABS,ioos:station:wmo:42043:1,2013-06-04T16:00:00Z,28.9818,-94.9186,2.0,27.45,11111222 
TABS,ioos:station:wmo:42043:1,2013-06-04T16:30:00Z,28.9818,-94.9186,2.0,27.49,11111222 
TABS,ioos:station:wmo:42043:1,2013-06-04T17:00:00Z,28.9818,-94.9186,2.0,27.55,11111222 
TABS,ioos:station:wmo:42043:1,2013-06-04T17:30:00Z,28.9818,-94.9186,2.0,27.49,11111222 
TABS,ioos:station:wmo:42043:1,2013-06-04T18:00:00Z,28.9818,-94.9186,2.0,27.33,11111222 
TABS,ioos:station:wmo:42043:1,2013-06-04T18:30:00Z,28.9818,-94.9186,2.0,27.67,11111222 
TABS,ioos:station:wmo:42043:1,2013-06-04T19:00:00Z,28.9818,-94.9186,2.0,27.76,11111222 
TABS,ioos:station:wmo:42043:1,2013-06-04T19:30:00Z,28.9818,-94.9186,2.0,27.63,11111222 
TABS,ioos:station:wmo:42043:1,2013-06-04T20:00:00Z,28.9818,-94.9186,2.0,27.94,11111222 
TABS,ioos:station:wmo:42043:1,2013-06-04T20:30:00Z,28.9818,-94.9186,2.0,27.94,11111222 
TABS,ioos:station:wmo:42043:1,2013-06-04T21:00:00Z,28.9818,-94.9186,2.0,28.02,11111222 
TABS,ioos:station:wmo:42043:1,2013-06-04T21:30:00Z,28.9818,-94.9186,2.0,28.19,11111222 
TABS,ioos:station:wmo:42043:1,2013-06-04T22:00:00Z,28.9818,-94.9186,2.0,28.07,11111222 
TABS,ioos:station:wmo:42043:1,2013-06-04T22:30:00Z,28.9818,-94.9186,2.0,28.27,11111222 
TABS,ioos:station:wmo:42043:1,2013-06-04T23:00:00Z,28.9818,-94.9186,2.0,28.32,11111222 
TABS,ioos:station:wmo:42043:1,2013-06-04T23:30:00Z,28.9818,-94.9186,2.0,28.43,11111222 
TABS,ioos:station:wmo:42043:1,2013-06-05T00:00:00Z,28.9818,-94.9186,2.0,28.48,11111222 
TABS,ioos:station:wmo:42043:1,2013-06-05T00:30:00Z,28.9818,-94.9186,2.0,28.53,11111222 
TABS,ioos:station:wmo:42043:1,2013-06-05T01:00:00Z,28.9818,-94.9186,2.0,28.82,11111222 
TABS,ioos:station:wmo:42043:1,2013-06-05T01:30:00Z,28.9818,-94.9186,2.0,28.88,11111222 
TABS,ioos:station:wmo:42043:1,2013-06-05T02:00:00Z,28.9818,-94.9186,2.0,28.92,11111222 
TABS,ioos:station:wmo:42043:1,2013-06-05T02:30:00Z,28.9818,-94.9186,2.0,29.06,11111222 
TABS,ioos:station:wmo:42043:1,2013-06-05T03:00:00Z,28.9818,-94.9186,2.0,29.25,11111222 
TABS,ioos:station:wmo:42043:1,2013-06-05T03:30:00Z,28.9818,-94.9186,2.0,29.47,11111222 
TABS,ioos:station:wmo:42043:1,2013-06-05T04:00:00Z,28.9818,-94.9186,2.0,29.57,11111222 
TABS,ioos:station:wmo:42043:1,2013-06-05T04:30:00Z,28.9818,-94.9186,2.0,29.66,11111222 
TABS,ioos:station:wmo:42043:1,2013-06-05T05:00:00Z,28.9818,-94.9186,2.0,29.75,11111222 
TABS,ioos:station:wmo:42043:1,2013-06-05T05:30:00Z,28.9818,-94.9186,2.0,29.9,11111222 
TABS,ioos:station:wmo:42043:1,2013-06-05T06:00:00Z,28.9818,-94.9186,2.0,30.11,11111222 
TABS,ioos:station:wmo:42043:1,2013-06-05T06:30:00Z,28.9818,-94.9186,2.0,30.22,11111222 
TABS,ioos:station:wmo:42043:1,2013-06-05T07:00:00Z,28.9818,-94.9186,2.0,30.34,11111222 
TABS,ioos:station:wmo:42043:1,2013-06-05T07:30:00Z,28.9818,-94.9186,2.0,30.4,11111222 
TABS,ioos:station:wmo:42043:1,2013-06-05T08:00:00Z,28.9818,-94.9186,2.0,30.39,11111222 
TABS,ioos:station:wmo:42043:1,2013-06-05T08:30:00Z,28.9818,-94.9186,2.0,30.39,11111222 
TABS,ioos:station:wmo:42043:1,2013-06-05T09:00:00Z,28.9818,-94.9186,2.0,30.45,11111222 
TABS,ioos:station:wmo:42043:1,2013-06-05T09:30:00Z,28.9818,-94.9186,2.0,30.48,11111222 
TABS,ioos:station:wmo:42043:1,2013-06-05T10:00:00Z,28.9818,-94.9186,2.0,30.52,11111222 
TABS,ioos:station:wmo:42043:1,2013-06-05T10:30:00Z,28.9818,-94.9186,2.0,30.52,11111222 
TABS,ioos:station:wmo:42043:1,2013-06-05T11:00:00Z,28.9818,-94.9186,2.0,30.53,11111222 
TABS,ioos:station:wmo:42043:1,2013-06-05T11:30:00Z,28.9818,-94.9186,2.0,30.55,11111222 
TABS,ioos:station:wmo:42043:1,2013-06-05T12:00:00Z,28.9818,-94.9186,2.0,30.56,11111222 
TABS,ioos:station:wmo:42043:1,2013-06-05T12:30:00Z,28.9818,-94.9186,2.0,30.52,11111222 
TABS,ioos:station:wmo:42043:1,2013-06-05T13:00:00Z,28.9818,-94.9186,2.0,30.52,11111222 
TABS,ioos:station:wmo:42043:1,2013-06-05T13:30:00Z,28.9818,-94.9186,2.0,30.49,11111222 
TABS,ioos:station:wmo:42043:1,2013-06-05T14:00:00Z,28.9818,-94.9186,2.0,30.48,11111222 
TABS,ioos:station:wmo:42043:1,2013-06-05T14:30:00Z,28.9818,-94.9186,2.0,29.93,11111222 
TABS,ioos:station:wmo:42043:1,2013-06-05T15:00:00Z,28.9818,-94.9186,2.0,29.63,11111222 
TABS,ioos:station:wmo:42043:1,2013-06-05T15:30:00Z,28.9818,-94.9186,2.0,29.24,11111222 
TABS,ioos:station:wmo:42043:1,2013-06-05T16:00:00Z,28.9818,-94.9186,2.0,29.03,11111222 
TABS,ioos:station:wmo:42043:1,2013-06-05T16:30:00Z,28.9818,-94.9186,2.0,28.57,11111222 
TABS,ioos:station:wmo:42043:1,2013-06-05T17:00:00Z,28.9818,-94.9186,2.0,28.71,11111222 
TABS,ioos:station:wmo:42043:1,2013-06-05T17:30:00Z,28.9818,-94.9186,2.0,27.86,11111222 
TABS,ioos:station:wmo:42043:1,2013-06-05T18:00:00Z,28.9818,-94.9186,2.0,27.91,11111222 
TABS,ioos:station:wmo:42043:1,2013-06-05T18:30:00Z,28.9818,-94.9186,2.0,27.65,11111222 
TABS,ioos:station:wmo:42043:1,2013-06-05T19:00:00Z,28.9818,-94.9186,2.0,27.37,11111222 
TABS,ioos:station:wmo:42043:1,2013-06-05T19:30:00Z,28.9818,-94.9186,2.0,27.41,11111222 
TABS,ioos:station:wmo:42043:1,2013-06-05T20:00:00Z,28.9818,-94.9186,2.0,27.98,11111222 
TABS,ioos:station:wmo:42043:1,2013-06-05T20:30:00Z,28.9818,-94.9186,2.0,27.92,11111222 
TABS,ioos:station:wmo:42043:1,2013-06-05T21:00:00Z,28.9818,-94.9186,2.0,28.01,11111222 
TABS,ioos:station:wmo:42043:1,2013-06-05T21:30:00Z,28.9818,-94.9186,2.0,28.47,11111222 
TABS,ioos:station:wmo:42043:1,2013-06-05T22:00:00Z,28.9818,-94.9186,2.0,28.27,11111222 
TABS,ioos:station:wmo:42043:1,2013-06-05T22:30:00Z,28.9818,-94.9186,2.0,27.62,11111222 
TABS,ioos:station:wmo:42043:1,2013-06-05T23:00:00Z,28.9818,-94.9186,2.0,27.72,11111222 
TABS,ioos:station:wmo:42043:1,2013-06-05T23:30:00Z,28.9818,-94.9186,2.0,28.13,11111222 
TABS,ioos:station:wmo:42043:1,2013-06-06T00:00:00Z,28.9818,-94.9186,2.0,28.56,11111222 
TABS,ioos:station:wmo:42043:1,2013-06-06T00:30:00Z,28.9818,-94.9186,2.0,27.97,11111222 
TABS,ioos:station:wmo:42043:1,2013-06-06T01:00:00Z,28.9818,-94.9186,2.0,28.14,11111222 
TABS,ioos:station:wmo:42043:1,2013-06-06T01:30:00Z,28.9818,-94.9186,2.0,28.22,11111222 
TABS,ioos:station:wmo:42043:1,2013-06-06T02:00:00Z,28.9818,-94.9186,2.0,28.59,11111222 
TABS,ioos:station:wmo:42043:1,2013-06-06T02:30:00Z,28.9818,-94.9186,2.0,28.69,11111222 
TABS,ioos:station:wmo:42043:1,2013-06-06T03:00:00Z,28.9818,-94.9186,2.0,28.9,11111222 
TABS,ioos:station:wmo:42043:1,2013-06-06T03:30:00Z,28.9818,-94.9186,2.0,29.08,11111222 
TABS,ioos:station:wmo:42043:1,2013-06-06T04:00:00Z,28.9818,-94.9186,2.0,29.3,11111222 
TABS,ioos:station:wmo:42043:1,2013-06-06T04:30:00Z,28.9818,-94.9186,2.0,29.55,11111222 
TABS,ioos:station:wmo:42043:1,2013-06-06T05:00:00Z,28.9818,-94.9186,2.0,29.66,11111222 
TABS,ioos:station:wmo:42043:1,2013-06-06T05:30:00Z,28.9818,-94.9186,2.0,29.75,11111222 
TABS,ioos:station:wmo:42043:1,2013-06-06T06:00:00Z,28.9818,-94.9186,2.0,29.8,11111222 
TABS,ioos:station:wmo:42043:1,2013-06-06T06:30:00Z,28.9818,-94.9186,2.0,29.81,11111222 
TABS,ioos:station:wmo:42043:1,2013-06-06T07:00:00Z,28.9818,-94.9186,2.0,29.9,11111222 
TABS,ioos:station:wmo:42043:1,2013-06-06T07:30:00Z,28.9818,-94.9186,2.0,29.93,11111222 
TABS,ioos:station:wmo:42043:1,2013-06-06T08:00:00Z,28.9818,-94.9186,2.0,29.99,11111222 
TABS,ioos:station:wmo:42043:1,2013-06-06T08:30:00Z,28.9818,-94.9186,2.0,29.95,11111222 
TABS,ioos:station:wmo:42043:1,2013-06-06T09:00:00Z,28.9818,-94.9186,2.0,30.0,11111222 
TABS,ioos:station:wmo:42043:1,2013-06-06T09:30:00Z,28.9818,-94.9186,2.0,30.03,11111222 
TABS,ioos:station:wmo:42043:1,2013-06-06T10:00:00Z,28.9818,-94.9186,2.0,29.95,11111222 
TABS,ioos:station:wmo:42043:1,2013-06-06T10:30:00Z,28.9818,-94.9186,2.0,29.7,11111222 
TABS,ioos:station:wmo:42043:1,2013-06-06T11:00:00Z,28.9818,-94.9186,2.0,29.62,11111222 
TABS,ioos:station:wmo:42043:1,2013-06-06T11:30:00Z,28.9818,-94.9186,2.0,29.31,11111222 
TABS,ioos:station:wmo:42043:1,2013-06-06T12:00:00Z,28.9818,-94.9186,2.0,29.15,11111222 
TABS,ioos:station:wmo:42043:1,2013-06-06T12:30:00Z,28.9818,-94.9186,2.0,28.19,11111222 
TABS,ioos:station:wmo:42043:1,2013-06-06T13:00:00Z,28.9818,-94.9186,2.0,26.05,11111222 
TABS,ioos:station:wmo:42043:1,2013-06-06T13:30:00Z,28.9818,-94.9186,2.0,25.95,11111222 
TABS,ioos:station:wmo:42043:1,2013-06-06T14:00:00Z,28.9818,-94.9186,2.0,26.22,11111222 
TABS,ioos:station:wmo:42043:1,2013-06-06T14:30:00Z,28.9818,-94.9186,2.0,25.25,11111222 
TABS,ioos:station:wmo:42043:1,2013-06-06T15:00:00Z,28.9818,-94.9186,2.0,23.74,11111222 
TABS,ioos:station:wmo:42043:1,2013-06-06T15:30:00Z,28.9818,-94.9186,2.0,23.11,11111222 